www.pogodaiklimat.ru

Погода и климат >> Архив погоды >> Болгария >> Sandanski


ПОГОДА в Sandanski

  • Прогноз погоды в Sandanski
  • Монитор погоды в Sandanski
  • Климат города

АРХИВ ПОГОДЫ в Sandanski

Время (UTC), дата Ветер
(напр.,м/с)
 
Видим.   Явления Облачность Т
(С)
Тd
(С)
f
(%)
Тe
(С)
Тes
(С)
Комфортность P
(гПа)
Po
(гПа)
Тmin
(С)
Tmax
(С)
R
(мм)
R24
(мм)
S
(см)
03 8.08 штиль 0 30 км 3/0
[Ac trans]
+20.6 +16.0 75 +23 +23 комфорт 1014.9 991.0 +20.4 +30.5
06 8.08 СЗ 2 28 км 1/0
[Ac trans]
+23.8 +17.1 66 +28 +32 душно 1016.0 992.3 +20.2 +30.5
09 8.08 Ю 2 28 км 4/4 1000 м
[Cu med, cong]
+30.2 +15.8 42 +33 +43 душно 1015.5 992.3 +23.8 +30.4
12 8.08 Ю 2 28 км 8/8 1000 м
[Cb calv]
+32.6 +13.6 32 +34 +37 очень
жарко
1014.2 991.2 +23.8 +33.4
15 8.08 ЮЗ 3 28 км {ливн. осадки} 6/4 1000 м
[Cb calv Ci fib]
+33.5 +14.7 32 +35 +37 душно 1013.1 990.2 +23.8 +34.1
18 8.08 В 1 30 км {ливн. осадки} 6/3 1500 м
[Cu med, cong Ac trans Ci fib]
+30.4 +18.0 47 +35 +35 очень
душно
1013.8 990.7 +23.8 +34.1 0.0
21 8.08 В 2 30 км 1/0
[Ac trans]
+26.2 +17.1 57 +30 +30 душно 1015.8 992.3 +26.0 +30.7
00 9.08 З 4 30 км ясно +23.2 +17.6 71 +29 +29 душно 1016.5 992.8 +23.2 +30.7
03 9.08 З 2 30 км 1/0
[Ac trans]
+20.4 +16.1 76 +24 +24 комфорт 1017.5 993.5 +20.4 +30.7
06 9.08 Ю 1 30 км ясно +23.2 +16.7 67 +28 +34 душно 1018.2 994.4 +20.0 +30.7
09 9.08 ЮВ 2 28 км 3/3 1000 м
[Cu med, cong]
+29.8 +16.7 45 +33 +44 душно 1016.9 993.7 +23.2 +30.6
12 9.08 З 2 30 км 3/3 1000 м
[Cb calv Ci fib]
+33.8 +15.8 34 +36 +47 очень
душно
1015.0 992.1 +23.2 +34.1
15 9.08 В 4 30 км 5/4 1000 м
[Cb calv Ci fib]
+33.4 +15.9 35 +36 +38 очень
душно
1014.2 991.3 +23.2 +35.5
18 9.08 В 5 28 км 5/5 1000 м
[Cb calv]
+28.8 +16.0 46 +32 +32 душно 1016.0 992.7 +23.2 +35.5
21 9.08 С 1 25 км 3/0
[Ac trans]
+24.6 +16.9 62 +28 +28 душно 1017.8 994.1 +24.6 +29.1
00 10.08 З 3 25 км 3/3 1000 м
[Cu med, cong]
+22.2 +15.9 67 +26 +26 душно 1019.1 995.2 +22.2 +29.1
03 10.08 СЗ 0 30 км 1/1 1000 м
[Cu med, cong]
+19.6 +14.8 74 +21 +21 комфорт 1019.8 995.7 +19.4 +29.1
06 10.08 З 4 30 км 3/3 1000 м
[Cu med, cong]
+24.8 +13.6 50 +27 +29 жарко 1019.8 996.1 +19.2 +29.1
09 10.08 В 1 30 км 3/3 1000 м
[Cu med, cong]
+29.4 +15.1 42 +32 +45 душно 1018.6 995.3 +24.8 +29.6
12 10.08 Ю 2 30 км 4/3 1000 м
[Cu med, cong Ac trans]
+32.9 +13.1 30 +34 +44 очень
жарко
1016.5 993.5 +24.8 +33.6
15 10.08 В 4 30 км 6/4 1000 м
[Cu med, cong Ac trans]
+32.2 +14.8 35 +34 +35 душно 1016.2 993.1 +24.8 +34.6
18 10.08 В 4 30 км 8/8 1000 м
[Cu Sc]
+28.4 +14.2 42 +31 +31 душно 1017.6 994.2 +24.8 +34.6
21 10.08 З 2 30 км ясно +23.8 +14.0 54 +26 +26 жарко 1019.4 995.6 +23.7 +28.7
00 11.08 С 2 30 км ясно +21.7 +14.0 62 +25 +25 комфорт 1019.6 995.6 +21.6 +28.7
03 11.08 З 3 30 км 6/6 1000 м
[Sc]
+20.6 +14.5 68 +24 +24 комфорт 1019.2 995.2 +19.8 +28.7
06 11.08 З 4 30 км 8/6 1000 м
[Sc Ac trans]
+22.1 +12.9 56 +25 +26 комфорт 1019.7 995.8 +19.8 +28.7
09 11.08 З 2 30 км 5/3 1000 м
[Cu med, cong Ac trans]
+28.4 +15.0 44 +31 +40 душно 1018.5 995.1 +22.1 +28.6
12 11.08 З 2 30 км 3/3 1000 м
[Cu med, cong]
+32.8 +15.2 35 +35 +46 душно 1016.1 993.1 +22.1 +33.0
15 11.08 В 3 30 км 3/3 1000 м
[Cu med, cong]
+32.6 +16.2 37 +35 +38 душно 1014.0 991.0 +22.1 +33.5
18 11.08 В 5 30 км 3/3 1000 м
[Cu med, cong]
+27.4 +13.1 41 +29 +29 жарко 1014.9 991.5 +22.1 +33.5
21 11.08 З 3 30 км 4/0
[Ac trans]
+23.4 +13.7 54 +27 +27 душно 1017.4 993.6 +23.3 +27.7
00 12.08 З 3 30 км ясно +20.9 +13.9 64 +24 +24 комфорт 1017.3 993.3 +20.8 +27.7
03 12.08 СЗ 2 30 км 3/3 1000 м
[Cu hum Ci fib]
+18.4 +13.3 72 +19 +19 1017.8 993.6 +18.3 +27.7
06 12.08 З 2 30 км 4/3 1000 м
[Sc Ci fib]
+20.4 +12.5 60 +23 +26 комфорт 1018.8 994.7 +17.8 +27.7
09 12.08 В 1 30 км 4/3 1500 м
[Cu med, cong Ac trans Ci sp]
+27.6 +13.3 41 +29 +41 жарко 1017.2 993.8 +20.4 +28.2
12 12.08 З 3 30 км 3/3 1500 м
[Cu hum Ci fib]
+32.0 +12.2 30 +32 +41 жарко 1015.4 992.3 +20.4 +32.2
15 12.08 Ю 2 30 км 3/1 1500 м
[Cu hum Ac trans]
+32.6 +14.5 34 +34 +38 очень
жарко
1013.6 990.6 +20.4 +33.2
18 12.08 В 2 30 км 3/1 1500 м
[Cu hum Ci fib]
+28.6 +15.7 46 +32 +32 душно 1013.6 990.3 +20.4 +33.2
21 12.08 В 2 30 км 3/1 1500 м
[Cu hum Ci fib]
+24.6 +14.2 52 +27 +27 жарко 1015.0 991.4 +24.4 +28.9
00 13.08 З 3 30 км 1/1 1500 м
[Cu hum]
+21.2 +12.8 59 +23 +23 комфорт 1015.3 991.4 +21.0 +28.9
03 13.08 СЗ 1 30 км 1/1 1500 м
[Cu hum]
+18.4 +14.3 77 +20 +20 1015.3 991.2 +18.2 +28.9
06 13.08 З 2 30 км 1/1 1000 м
[Cu hum]
+21.2 +15.2 69 +24 +28 комфорт 1015.3 991.4 +17.8 +28.6
09 13.08 З 2 30 км 3/3 1000 м
[Cu med, cong]
+28.0 +14.1 43 +30 +41 жарко 1015.1 991.7 +21.2 +28.3
12 13.08 Ю 2 30 км 3/3 1000 м
[Cu med, cong]
+32.9 +14.3 33 +34 +45 очень
жарко
1012.1 989.2 +21.2 +33.0
15 13.08 ЮВ 2 30 км 3/3 1000 м
[Cu hum]
+34.2 +14.2 30 +35 +38 очень
жарко
1010.5 987.7 +21.2 +34.8
18 13.08 В 4 30 км ясно +28.5 +16.0 47 +32 +32 душно 1010.6 987.4 +21.2 +34.8
21 13.08 В 4 30 км ясно +25.0 +15.1 54 +28 +28 жарко 1012.0 988.5 +24.8 +28.8
00 14.08 З 1 30 км ясно +21.6 +16.2 71 +25 +25 комфорт 1013.4 989.6 +21.5 +28.8
03 14.08 З 3 30 км ясно +20.2 +15.3 73 +23 +23 комфорт 1013.1 989.2 +20.0 +28.8
06 14.08 З 3 30 км ясно +23.2 +14.3 57 +27 +30 душно 1013.7 990.0 +19.6 +28.8
09 14.08 ЮВ 2 30 км 1/1 1000 м
[Cu med, cong]
+29.2 +16.5 46 +33 +46 очень
душно
1012.4 989.2 +22.3 +29.6
12 14.08 ЮВ 2 30 км 4/3 1000 м
[Cb cap Ci ing]
+33.3 +15.3 34 +35 +46 душно 1010.0 987.2 +22.3 +34.0
15 14.08 В 2 30 км в посл. час гроза 8/5 1000 м
[Cb cap Ci ing]
+32.0 +15.2 36 +34 +36 душно 1009.2 986.3 +22.3 +34.5
18 14.08 В 5 26 км {гроза} 9/3 1000 м
[Cb calv As trans]
+28.8 +17.5 50 +33 +33 очень
душно
1009.9 986.8 +22.3 +34.5
21 14.08 В 2 25 км 3/3 1000 м
[Cu med, cong]
+26.3 +16.3 54 +30 +30 душно 1011.7 988.3 +26.0 +29.1
00 15.08 штиль 0 25 км гроза без осадков 10/10 1000 м
[Cb cap]
+24.6 +18.0 67 +29 +29 душно 1011.8 988.3 +24.6 +29.1

 

Местоположение метеостанции Sandanski (Болгария): широта 41.52 долгота 23.27 высота над уровнем моря 207 м.

В архиве по умолчанию представлена погода в Sandanski за последнюю неделю. Архивные данные за месяц целиком и за предыдущие месяцы, начиная с января 2011 года, Вы можете получить, выбрав интересующий диапазон дат из раскрывающегося списка и нажав кнопку "Ввод!".


*Определитесь, кто Вы:
робот инопланетянин человек

Внимание! Время в таблицах - всемирное. Для получения местного времени необходимо прибавить поправку, которая в Sandanski равна 2 ч.

Смотрите также архив погоды в соседних городах и на ближайших метеорологических станциях:

Погода в Berovo (Македония) (41 км)
Погода в Strumica (Македония) (53 км)
Погода в Serrai (Греция) (56 км)
Погода в Vinica (Македония) (75 км)
Погода в Gevgelija (Македония) (76 км)
Погода в Mussala (Болгария) (78 км)
Погода в Demir Kapija (Македония) (86 км)
Погода в Stip (Македония) (94 км)
Погода в Kriva Palanka (Македония) (109 км)
Погода в Thessaloniki (Греция) (114 км)

Пояснения к столбцам:

Ветер - указаны скорость ветра в м/с - средняя за 10 мин, порывы в срок и между сроками (в фигурных скобках) и направление, откуда дует ветер: С - северный, СВ - северо-восточный, В - восточный, ЮВ - юго-восточный, Ю - южный, ЮЗ - юго-западный, З - западный, СЗ - северо-западный.
Видимость - горизонтальная дальность видимости в метрах или километрах. При видимости от 1 до 10 км при отсутствии осадков обычно наблюдается дымка, при ухудшении видимости до 1 км и менее - туман. В сухую погоду видимость может ухудшаться дымом, пылью или мглою.
Явления - указаны атмосферные явления, наблюдавшиеся в срок или в последний час перед сроком; фигурными скобками обозначены явления, наблюдавшиеся между сроками (за 1-3 часа до срока); квадратными скобками обозначены град или гололедные отложения с указанием их диаметра в мм.
Облачность - указаны через наклонную черту общая и нижняя облачность в баллах и высота нижней границы облаков в метрах; квадратными скобками обозначены формы облаков: Ci - перистые, Cs - перисто-слоистые, Cc - перисто-кучевые, Ac - высококучевые, As - высокослоистые, Sc - слоисто-кучевые, Ns - слоисто-дождевые, Cu - кучевые, Cb - кучево-дождевые. Подробнее классификацию облаков см. в Атласе облаков (PDF).
T - Температура воздуха - температура, измеренная на высоте 2 м над землей.
Td - Температура точки росы - температура, при понижении до которой содержащийся в воздухе водяной пар достигнет насыщения.
f - Относительная влажность воздуха - влажноcть воздуха, измеренная на высоте 2 м над землей.
Te - Эффективная температура - температура, которую ощущает одетый по сезону человек в тени. Характеристика душности погоды. При расчете учитывается влияние влажности воздуха и скорости ветра на теплоощущения человека.
Tes - Эффективная температура на солнце - температура, которую ощущает человек, с поправкой на солнечный нагрев. Характеристика знойности погоды. Зависит от высоты солнца над горизонтом, облачности и скорости ветра. Ночью, в пасмурную погоду, а также при ветре 12 м/с и более поправка равна нулю.
P - Атмосферное давление - приведенное к уровню моря атмосферное давление.
Po - Атмосферное давление - измеренное на уровне метеостанции атмосферное давление.
Tmin - Минимальная температура - минимум температуры воздуха на высоте 2 м над землей.
Tmax - Максимальная температура - максимум температуры воздуха на высоте 2 м над землей.
R - Количество осадков - Количество выпавших осадков за период времени, мм. При наведении курсора мыши на число - период времени, за который выпало указанное количество осадков.
R24 - Количество осадков - Количество выпавших осадков за 24 часа, мм.
S - Снежный покров - Высота снежного покрова, см. При наведении курсора мыши на число - состояние снежного покрова и степень покрытия местности в баллах.